Location: A�t Lahcen
(32.8243°N, 5.4246°W)
Time: 02:08:59
(UTC+00:00)

ERS-2 - Pass Details

Date: 27 January 2021
Orbit: 492 x 497 km, 98.6° (Epoch: 26 February)

Event Time Altitude Azimuth Distance (km) Brightness Sun altitude
Rises 06:49:32 0° 201° (SSW) 2,568 5.7 -6.8°
Reaches altitude 10° 06:52:11 10° 222° (SW) 1,689 4.6 -6.3°
Maximum altitude 06:54:34 17° 264° (W) 1,331 3.7 -5.8°
Drops below altitude 10° 06:56:58 10° 305° (NW) 1,695 4.2 -5.3°
Enters shadow 06:59:32 - 326° (NW) 2,542 5.2 -4.8°
